Theta_e
312 314 315 315 315 316 316 316 316 317 317 317 317 318 317 316 317 316 317 319 318 320 322 321 319 318 319 320 320 319 317 320 320 319 319 319 318 318 317 315 314 313 312 310 309 309 309 308 312 316 311 309 308 303 301 301 299 299 299 298 298 298 298 298 298 298 298 297 297 297 297 297 297 297 297 297 297 297 297 297 297 296 296 296 296
316 316 317 317 318 318 318 319 318 318 319 318 318 318 317 318 319 318 318 320 320 320 320 319 319 320 320 321 321 318 318 320 320 319 319 319 319 318 315 314 313 311 309 309 308 307 306 307 313 316 309 303 302 299 300 299 298 298 298 298 298 298 298 298 298 297 297 297 297 297 297 297 297 297 297 297 296 296 296 296 296 296 296 296 296
317 318 318 319 320 320 320 321 320 320 319 318 318 319 319 319 320 319 320 321 321 321 320 318 320 321 321 322 321 319 320 320 320 321 320 320 319 317 314 313 312 309 308 307 306 305 304 305 310 313 306 300 299 299 299 298 298 298 297 298 298 297 297 297 297 297 297 297 297 297 296 297 296 297 296 296 296 296 296 296 296 296 295 295 295
319 319 320 320 320 320 320 320 319 319 319 318 319 319 319 319 320 320 320 320 320 319 318 319 321 322 322 323 321 320 322 320 320 321 320 319 318 316 313 311 309 307 306 305 303 303 302 301 304 305 301 299 299 298 298 298 298 297 297 297 297 297 297 297 297 297 296 296 296 296 296 296 296 296 296 296 296 295 296 295 295 295 295 295 295
320 320 320 320 320 320 320 319 318 318 319 318 319 319 319 319 320 320 319 320 320 319 318 318 321 322 322 323 321 321 321 320 320 320 319 318 317 316 312 309 307 306 304 303 302 301 300 300 300 300 299 298 298 298 298 297 297 297 297 297 297 297 297 297 296 296 296 296 296 296 296 296 296 296 296 295 295 295 295 295 295 295 295 295 294
321 321 321 321 321 321 321 320 320 320 320 320 319 318 318 318 319 319 319 320 320 321 321 320 321 322 322 323 322 321 321 320 320 320 319 317 315 314 311 307 305 303 303 302 301 300 300 299 299 299 298 298 298 298 297 297 297 297 297 297 296 296 296 296 296 296 296 296 296 296 296 296 295 295 295 295 295 295 295 295 295 295 294 294 294
322 322 322 322 322 322 322 321 322 322 321 320 319 318 318 318 318 319 319 319 320 320 321 321 321 322 322 322 321 321 321 320 320 321 319 316 314 313 309 305 303 302 302 301 300 299 299 299 298 298 298 298 297 297 297 297 297 296 296 296 296 296 296 296 296 296 296 296 296 295 295 295 295 295 295 295 295 295 295 295 295 294 294 294 294
323 323 322 322 322 322 322 322 322 322 321 319 318 317 317 317 317 318 319 319 320 320 320 321 322 322 321 321 321 320 321 321 320 321 319 315 314 311 306 303 302 301 301 300 299 299 299 298 298 298 297 297 297 297 297 296 296 296 296 296 296 296 296 296 296 296 295 295 295 295 295 295 295 295 295 295 294 295 294 294 294 294 294 294 294
323 323 322 322 322 322 322 322 323 322 321 319 317 317 317 317 317 317 318 319 319 320 320 321 321 321 321 320 321 321 321 322 321 320 318 315 312 308 303 301 301 301 300 299 299 298 298 298 298 297 297 297 297 296 296 296 296 296 296 296 296 296 296 296 295 295 295 295 295 295 295 294 294 294 294 294 294 294 294 294 294 294 294 294 293
322 322 322 322 322 322 322 322 323 322 321 319 318 318 317 317 317 318 318 319 319 319 319 319 320 321 321 321 321 321 322 322 321 320 317 313 309 304 300 301 301 300 299 299 298 298 298 298 297 297 297 297 296 296 296 296 296 296 296 296 296 296 295 295 295 295 295 294 295 294 294 294 294 294 294 294 294 294 294 294 294 294 293 293 293
322 322 322 322 322 322 322 322 322 322 321 320 319 319 317 316 318 319 319 319 319 320 320 320 320 320 321 321 321 321 322 321 321 320 316 311 307 301 300 300 300 299 299 299 298 298 298 297 297 296 296 296 296 296 296 296 296 296 296 296 295 295 295 295 295 294 294 294 294 294 294 294 294 294 294 294 294 294 294 294 294 293 293 293 294
322 322 322 322 322 322 322 322 322 322 321 320 320 319 318 317 318 319 320 320 321 321 321 320 320 320 320 320 320 321 321 321 320 318 313 308 304 300 300 300 299 299 299 298 298 298 298 297 297 296 296 296 296 296 296 296 296 296 296 295 295 295 295 294 294 294 294 294 294 294 294 294 294 294 294 294 294 294 294 293 293 293 293 295 296
321 322 322 322 322 322 322 322 322 322 321 320 320 319 318 318 318 319 321 322 322 322 320 320 321 320 319 320 320 320 320 320 319 315 310 305 301 299 300 299 298 299 298 298 298 298 298 297 297 296 296 296 296 295 296 295 296 296 295 295 295 295 294 294 294 294 294 294 294 294 294 294 294 294 294 294 294 294 293 293 293 293 294 296 297
320 320 321 321 321 322 322 322 322 322 322 321 321 320 319 319 319 319 320 322 322 322 320 320 320 319 320 321 321 320 320 320 317 313 308 303 300 299 299 299 298 298 298 298 298 298 297 297 296 296 296 295 295 295 296 295 295 295 295 295 295 294 294 294 294 294 294 294 294 294 294 294 294 294 294 294 293 293 293 293 293 294 295 296 298
320 320 320 320 321 321 322 322 322 322 322 322 321 320 320 320 320 318 319 321 322 321 320 319 320 320 321 321 321 320 319 318 316 315 311 303 299 299 298 298 298 298 298 298 298 297 296 296 296 296 295 295 295 295 295 295 295 295 295 295 294 294 294 294 294 293 293 293 294 294 294 293 293 294 293 293 293 293 293 292 293 295 296 296 297
320 320 320 320 321 321 322 322 323 323 322 322 321 320 319 320 320 319 319 320 321 321 320 320 320 320 320 321 322 320 317 317 317 316 314 304 298 298 298 298 298 298 298 298 297 297 296 296 296 295 295 295 295 295 295 295 295 295 295 294 294 294 293 293 293 293 293 293 293 293 293 293 293 293 293 293 293 292 293 292 293 295 295 296 297
320 321 321 321 321 322 322 323 323 323 323 322 321 320 320 320 320 320 320 320 320 320 320 320 320 319 319 320 322 320 317 316 317 317 315 306 297 298 298 297 298 298 298 298 297 297 296 296 296 295 295 295 295 295 294 294 294 294 294 294 294 293 293 293 293 293 293 293 293 293 293 293 293 293 293 293 292 292 292 292 293 295 295 296 297
321 321 321 321 321 322 323 323 323 324 323 323 322 321 321 320 321 321 321 320 320 321 321 320 319 318 318 318 320 320 318 316 316 316 315 308 299 297 297 297 297 298 298 298 297 296 296 295 295 295 295 295 294 294 294 294 294 294 294 294 293 293 293 293 293 293 293 293 293 293 293 293 293 293 293 293 292 292 292 291 292 294 294 296 296
320 320 321 321 321 322 323 324 324 324 323 323 323 322 321 321 320 321 322 322 321 321 321 319 319 318 317 318 319 320 320 318 317 316 314 309 301 296 297 297 297 297 297 297 297 296 296 295 295 295 294 294 294 294 294 294 294 293 293 293 293 293 293 293 293 293 293 293 293 293 293 293 293 293 292 292 292 292 292 291 291 293 294 295 296
320 320 321 321 321 322 323 324 324 324 324 324 323 323 322 321 321 322 322 322 322 321 320 319 319 318 316 317 319 320 319 319 319 318 314 310 304 298 297 297 296 297 297 296 296 296 295 295 295 294 294 294 294 294 294 293 293 293 293 293 293 293 292 292 293 293 293 293 293 293 293 293 293 293 292 292 292 291 291 291 291 292 293 295 295
321 321 322 322 322 322 323 323 323 323 323 323 324 324 323 322 321 322 323 322 323 322 320 320 319 318 316 316 318 319 319 318 319 319 316 311 306 301 299 298 296 296 296 296 296 295 295 295 294 294 294 294 293 293 293 293 293 293 293 293 292 292 292 292 293 293 293 293 293 293 293 292 292 292 292 291 291 291 291 291 291 291 293 294 294
321 322 322 322 323 323 322 323 323 323 323 323 324 324 324 323 322 322 322 321 323 322 320 320 320 319 318 316 315 316 318 318 319 319 316 314 311 305 302 300 298 297 296 296 296 295 295 295 294 294 294 294 293 293 293 293 293 293 293 292 292 292 292 292 292 292 293 293 293 293 292 292 292 292 292 291 291 291 291 291 290 291 293 293 293
321 322 323 323 323 323 322 323 323 324 324 323 324 324 324 323 323 323 322 322 323 322 320 319 321 320 319 317 315 314 315 317 318 317 314 314 313 308 305 303 300 297 296 295 295 295 295 294 294 294 293 293 293 293 293 293 293 293 292 292 292 292 292 292 292 292 292 292 292 292 292 292 291 291 291 291 290 291 290 290 290 291 292 292 293
323 323 323 323 324 323 323 324 324 324 324 324 324 324 324 324 323 323 322 322 323 323 320 319 320 321 320 317 315 314 314 314 316 316 312 311 311 307 305 303 299 297 296 295 295 295 294 294 294 294 293 293 293 293 293 293 293 292 292 292 292 292 292 292 292 292 292 292 292 291 291 291 291 291 291 290 290 290 290 290 290 290 292 292 292
321 321 322 323 323 324 323 324 324 324 324 325 324 325 324 324 324 323 323 323 323 322 320 319 320 321 321 318 315 314 313 311 314 315 311 309 307 304 303 303 299 297 296 295 295 295 294 294 294 294 293 293 293 293 293 293 292 292 292 292 292 292 292 292 292 292 292 292 291 291 291 291 291 291 290 290 290 290 289 289 289 290 291 291 292
319 319 320 322 322 323 324 324 325 325 325 325 325 325 325 324 324 324 323 323 323 322 320 319 319 320 320 319 316 314 313 310 309 310 306 304 303 301 302 302 298 296 296 295 295 295 295 295 295 295 294 293 293 292 292 292 292 292 292 292 292 292 292 292 291 292 291 291 291 291 290 290 290 290 290 290 290 289 289 289 289 290 290 290 290
318 319 320 321 322 323 324 324 325 326 326 326 326 326 325 325 325 325 324 324 324 322 320 319 319 319 320 319 318 316 315 311 307 305 304 301 300 300 303 302 298 296 296 295 295 295 295 296 295 295 294 293 293 292 292 292 292 291 291 291 292 291 291 291 291 291 291 291 290 290 290 290 290 290 289 289 289 289 288 288 288 288 289 289 289
319 320 320 321 321 322 323 323 325 326 326 326 326 326 326 325 325 325 325 325 324 323 320 319 319 318 319 320 319 318 316 313 307 304 303 301 299 301 303 302 300 297 296 296 296 296 296 296 295 295 294 292 292 292 292 292 291 291 291 291 291 291 291 291 291 291 290 290 290 290 289 289 289 289 289 289 288 288 288 288 288 287 288 288 287
319 319 320 320 321 321 321 322 323 325 325 326 326 326 327 326 325 326 326 324 322 320 319 320 320 319 319 320 319 318 317 314 309 303 302 300 299 301 303 301 299 299 298 297 297 297 296 296 296 295 293 292 292 292 291 291 291 291 291 291 291 291 291 291 291 290 290 290 289 289 289 289 289 289 289 288 288 288 288 287 287 287 287 287 286
320 320 320 321 321 321 321 322 322 323 324 325 326 326 327 327 326 326 325 322 320 319 319 320 320 318 319 320 320 319 317 315 311 303 300 299 299 302 302 299 298 298 298 298 297 297 296 295 295 294 293 292 292 292 291 291 291 291 291 291 291 291 291 291 290 290 290 289 289 289 289 288 289 289 289 288 288 288 288 287 287 287 286 285 286
321 321 321 322 322 322 322 322 322 323 323 324 325 327 327 327 327 326 324 322 321 322 323 322 319 318 319 321 321 319 316 314 309 301 299 299 299 301 301 298 297 297 296 296 296 296 296 295 295 293 292 292 292 291 291 291 291 291 291 291 291 291 291 291 290 290 289 289 289 289 288 288 288 289 288 288 288 287 287 287 287 286 286 285 285
322 322 322 323 323 323 323 323 323 323 323 324 325 326 327 327 326 324 323 323 323 323 322 321 319 319 320 321 321 319 316 311 305 300 298 298 299 301 299 297 296 296 295 295 294 295 296 295 293 292 292 292 292 291 291 291 291 291 291 291 290 290 291 290 290 290 289 289 289 289 288 288 288 289 288 288 287 287 287 287 286 286 285 284 285
323 323 324 324 324 325 324 324 324 324 323 324 325 326 327 327 325 323 324 324 322 320 319 319 320 320 320 320 320 319 315 307 301 299 298 298 299 300 298 296 296 295 295 294 294 294 294 294 293 292 292 292 291 291 291 291 291 290 290 290 290 290 290 290 290 289 289 288 289 289 288 288 288 288 288 287 287 287 287 287 286 286 285 284 284
324 324 324 325 325 326 325 325 325 324 323 322 323 325 326 327 325 324 324 322 320 319 320 320 320 321 321 320 319 319 314 304 299 298 297 298 299 299 298 296 296 295 294 294 294 293 293 293 292 292 292 292 291 292 291 291 290 290 290 290 290 290 290 290 290 289 289 288 288 288 288 288 288 288 287 287 287 287 287 286 286 285 285 284 284
323 324 325 326 326 326 326 326 325 323 322 321 322 324 325 327 326 325 324 321 320 322 321 321 321 321 321 320 318 319 313 301 297 298 297 297 299 298 297 296 295 295 294 294 293 293 293 293 292 292 292 291 291 291 291 290 290 290 290 290 290 290 290 289 289 289 289 288 288 288 288 288 287 287 287 286 286 286 287 286 286 285 284 284 284
323 324 325 325 326 326 326 326 325 323 322 322 323 324 325 327 327 326 325 322 321 323 323 322 320 320 321 319 317 318 311 299 297 297 296 297 299 297 296 296 295 295 294 293 293 293 293 293 292 292 292 291 291 291 291 290 290 290 290 290 290 289 289 289 289 289 289 288 288 288 288 287 287 287 287 286 286 286 286 286 285 284 284 284 284
323 324 325 325 325 326 326 326 325 324 322 322 323 324 326 327 328 327 325 323 323 322 322 322 321 321 320 318 317 316 307 297 297 297 296 298 299 297 296 296 295 294 294 293 293 293 292 292 292 292 291 291 291 291 291 290 290 290 290 290 289 289 289 289 289 289 289 288 288 287 287 287 286 286 286 286 286 286 286 286 285 284 284 283 283
323 324 324 325 325 325 325 325 325 324 322 322 323 325 326 327 328 327 324 324 325 323 322 322 321 320 318 317 317 312 302 296 297 297 297 299 299 297 296 295 295 294 294 293 293 293 292 292 292 292 291 291 291 291 291 290 290 290 290 289 289 289 289 288 288 289 289 288 288 287 287 287 286 286 286 286 286 286 286 286 285 284 283 283 283
322 323 324 324 325 325 326 326 325 324 322 322 323 325 326 327 328 326 323 323 325 323 322 321 319 317 315 315 314 307 299 297 297 296 297 299 298 296 296 295 294 294 294 294 293 293 292 292 291 291 291 291 291 290 290 290 290 290 289 289 289 289 289 288 288 288 289 288 287 287 287 286 286 286 286 286 286 286 286 285 284 284 283 283 283
322 322 322 322 323 324 325 324 323 322 322 322 323 325 326 326 327 325 323 323 324 323 321 321 319 315 313 313 309 301 297 296 296 296 297 298 298 296 295 295 294 294 294 294 293 293 292 292 291 291 291 291 290 290 290 290 290 289 289 289 289 289 288 288 288 288 288 289 288 286 286 286 286 286 286 286 286 286 286 285 284 284 283 283 283
321 321 322 323 324 324 323 321 321 322 323 324 325 326 326 326 326 325 323 323 323 322 321 321 319 315 311 310 304 298 296 296 295 295 296 296 296 296 295 295 294 294 294 294 293 293 292 292 291 291 291 291 290 290 290 290 289 289 289 289 289 289 288 288 288 288 288 289 288 286 286 286 286 286 286 286 286 285 285 285 284 284 283 282 282
318 319 321 323 323 323 323 321 321 323 324 325 325 326 326 326 325 324 324 323 322 321 321 321 319 315 311 307 301 296 295 295 294 295 295 296 295 295 294 294 294 294 294 294 293 293 293 292 292 291 291 291 290 290 290 290 289 289 289 289 288 288 289 288 288 288 288 288 287 286 286 286 286 285 285 285 285 285 285 285 284 283 283 282 282
318 319 319 321 322 323 323 322 322 323 325 325 326 325 325 325 325 324 324 323 321 320 320 320 320 317 312 305 298 295 295 294 294 295 295 295 295 294 294 294 294 294 295 294 294 294 294 292 291 291 291 291 290 290 290 289 289 289 288 288 288 288 289 289 288 287 287 287 287 286 286 286 286 285 285 285 285 285 284 284 284 283 282 282 282
316 318 319 320 321 322 322 322 323 324 325 325 326 325 323 324 325 325 324 322 321 319 319 319 318 316 312 305 297 295 295 294 294 295 295 295 295 294 294 293 294 295 295 295 295 295 294 292 292 292 291 291 290 290 290 289 289 288 288 288 288 288 288 288 287 286 286 287 286 286 285 285 285 285 285 285 285 284 284 284 283 283 282 282 282
316 317 318 319 320 321 322 323 323 324 325 325 325 324 323 324 324 323 322 322 321 320 319 318 317 314 310 304 297 295 295 294 294 295 295 295 294 294 293 293 294 295 296 296 295 294 293 292 292 292 291 291 291 290 289 289 288 288 288 288 288 288 288 288 287 286 286 286 286 285 285 285 285 285 284 284 284 284 284 283 283 283 282 282 281
315 317 318 319 321 321 322 323 323 323 324 323 323 323 323 324 322 320 321 321 320 320 319 317 315 312 308 302 297 295 295 295 294 295 295 294 294 293 293 294 295 295 296 296 295 293 293 292 292 291 291 291 290 290 289 289 288 288 288 288 288 288 288 287 287 286 285 285 285 285 285 285 285 285 284 284 284 284 283 283 283 283 282 281 281
313 316 318 318 320 321 322 323 323 323 323 322 322 322 323 322 320 320 321 320 319 319 318 314 312 310 305 300 296 295 295 295 295 295 295 294 294 293 293 294 295 295 296 295 294 293 293 292 292 292 292 292 290 289 289 288 288 288 288 288 288 288 287 287 286 285 285 285 285 284 285 285 285 285 284 284 284 284 283 283 283 282 282 281 281
311 313 316 318 319 321 322 322 322 321 321 321 321 321 321 320 320 320 320 319 318 319 317 313 310 307 302 297 295 295 295 295 294 295 295 294 293 293 293 294 295 295 295 294 293 293 293 293 293 293 293 292 290 289 289 288 288 288 287 287 287 287 287 287 286 285 284 284 284 284 285 285 285 285 284 284 284 283 283 283 283 282 282 281 281
310 311 313 316 318 319 320 321 321 321 320 320 320 320 320 319 320 320 320 319 319 319 317 313 309 304 299 295 295 294 294 294 294 294 294 293 293 293 293 295 295 295 294 293 293 293 294 294 294 293 293 292 290 289 288 288 288 288 287 287 287 287 286 286 286 285 284 284 284 284 285 285 284 284 284 284 284 283 283 283 282 282 281 281 281
310 311 312 314 315 316 317 317 318 319 319 319 319 320 319 319 319 319 319 318 318 318 316 312 307 302 297 294 294 294 294 294 294 293 293 292 292 293 294 295 295 295 294 293 293 294 295 295 295 295 294 291 289 288 288 288 288 287 287 287 286 286 286 286 285 284 284 284 284 284 284 284 284 284 284 284 284 283 283 283 282 281 281 281 281
312 313 315 315 315 315 316 316 317 318 319 319 319 318 318 318 318 317 317 317 316 316 316 312 305 299 295 294 294 294 294 294 293 293 292 292 292 293 294 295 295 294 294 293 294 295 295 296 295 295 293 291 288 288 288 287 287 287 286 286 286 286 285 285 284 284 283 283 284 284 284 284 283 283 284 284 284 283 283 283 282 281 281 281 281
Wind_Speed
10 10 10 10 9 9 9 8 8 8 7 7 8 8 7 6 5 4 3 3 2 3 4 6 8 5 3 4 8 8 1 3 2 1 1 2 3 4 4 5 6 6 6 7 7 7 7 7 8 8 7 9 10 10 11 12 12 11 11 11 11 12 12 13 14 15 16 16 17 18 19 20 20 21 22 23 24 25 26 28 29 31 33 36 38
11 11 11 10 9 9 9 8 8 8 8 8 8 8 7 6 4 3 4 4 5 7 7 6 3 2 2 3 8 8 2 3 1 2 2 2 3 2 3 5 5 6 6 6 7 7 7 7 9 9 7 9 9 10 11 10 10 10 10 11 11 12 13 14 15 16 16 17 18 18 19 20 21 21 22 24 26 27 29 30 33 35 37 39 41
12 11 10 10 9 9 8 9 9 8 8 9 8 7 6 6 5 4 5 6 7 10 10 3 3 2 1 3 7 4 3 2 1 3 5 4 2 2 3 5 4 6 6 6 6 6 7 8 9 9 8 9 9 9 9 9 10 10 11 11 12 13 14 15 15 16 17 17 18 19 19 20 21 22 24 26 28 30 32 34 36 38 40 42 43
12 11 11 10 9 9 9 9 10 9 8 9 9 8 6 7 7 5 4 5 5 7 7 2 4 2 1 1 5 1 2 3 1 4 6 5 2 2 3 4 4 6 6 5 5 6 6 7 7 6 7 8 7 8 8 9 9 10 11 12 13 13 14 15 15 16 17 17 18 19 20 21 23 25 27 29 31 33 34 36 38 40 42 43 44
11 11 11 10 9 9 9 9 9 9 10 10 10 9 8 8 8 6 4 3 2 2 2 3 4 4 3 3 4 2 2 4 2 4 6 5 2 2 2 3 5 5 5 4 5 5 5 5 5 5 6 6 6 7 7 8 9 10 11 11 12 13 14 15 15 16 17 18 19 20 22 23 25 27 29 31 33 34 36 38 39 41 43 44 45
12 11 11 10 10 9 9 9 10 11 12 12 12 10 9 10 9 7 6 4 3 2 1 1 3 4 4 6 7 4 4 5 3 4 7 5 2 1 1 3 5 4 4 4 4 4 4 4 4 5 5 5 5 6 7 8 9 10 11 12 13 14 14 15 16 17 18 19 20 22 24 25 27 29 31 32 34 36 38 39 41 42 43 44 45
13 12 11 11 11 11 11 11 11 12 13 14 13 10 9 10 10 8 7 6 5 4 3 2 6 7 7 8 8 6 6 6 5 5 7 5 2 1 1 3 4 4 3 3 4 3 3 3 3 4 3 4 5 6 7 8 9 10 11 12 13 14 15 16 17 18 19 21 22 24 25 27 29 30 32 34 35 37 39 40 42 43 44 44 45
14 14 13 12 13 13 12 12 13 14 14 14 13 10 9 10 10 8 7 8 8 8 6 5 8 9 8 8 7 6 7 7 6 7 7 5 3 2 3 3 3 3 2 3 2 2 2 2 2 2 3 4 5 6 7 8 9 11 12 13 14 15 16 17 18 20 21 23 24 25 27 29 30 32 33 35 36 38 40 41 43 43 44 44 44
16 16 16 15 15 15 14 14 15 15 15 15 14 11 10 10 10 9 8 9 10 11 10 9 10 10 7 7 7 8 9 8 8 8 8 6 4 4 4 3 3 3 2 2 1 1 1 1 1 1 2 3 5 6 7 8 10 11 12 14 15 16 17 18 20 21 22 24 25 27 28 30 31 33 34 36 37 39 41 42 43 44 44 44 44
18 19 19 18 17 18 17 17 17 17 17 16 14 13 13 11 10 10 9 8 9 10 11 11 11 9 7 7 8 10 10 9 9 8 8 6 5 6 5 4 3 3 2 2 1 1 1 0 0 1 2 4 5 6 8 9 10 12 13 15 16 17 18 19 21 22 23 24 26 27 29 30 32 33 35 36 38 40 41 42 43 43 43 43 43
21 21 21 20 20 20 19 19 19 18 18 17 16 15 15 13 11 10 10 8 8 9 9 10 9 9 9 8 9 11 10 9 9 10 8 6 6 7 6 5 4 3 3 3 2 2 1 1 1 2 3 4 6 7 8 9 11 12 14 15 17 18 19 20 21 22 24 25 27 28 29 31 32 33 35 37 38 40 41 42 42 43 43 43 43
23 23 23 23 22 21 21 20 20 20 19 18 18 17 16 14 12 11 12 10 9 10 10 9 9 9 9 8 10 12 10 9 10 10 8 7 7 8 7 6 5 5 4 3 3 3 3 2 2 2 4 5 6 7 8 10 12 13 15 16 18 19 20 21 22 23 24 26 27 28 30 31 32 34 35 37 39 40 41 42 42 43 42 42 41
26 25 25 24 23 23 22 22 22 22 21 20 19 18 16 15 14 14 14 12 12 12 11 10 10 10 9 10 11 10 9 9 10 10 8 8 9 8 7 7 6 5 5 4 3 4 4 4 3 4 4 5 7 8 10 11 13 15 16 17 18 19 20 21 22 23 25 26 27 28 30 31 32 34 36 37 39 40 41 42 42 43 42 40 39
29 27 26 25 25 25 24 23 23 23 22 21 20 20 18 18 17 17 16 15 15 15 12 11 12 12 13 13 12 10 9 11 10 9 8 9 10 9 8 8 7 6 6 5 5 5 6 5 4 4 5 6 7 9 11 13 15 16 17 18 18 19 20 21 22 24 25 26 27 28 30 31 32 34 36 38 39 40 41 42 43 42 40 39 39
31 29 27 27 26 26 26 25 24 24 24 23 23 22 21 20 20 19 17 17 18 17 14 13 13 15 15 15 15 14 13 12 12 9 8 10 11 10 9 9 8 7 6 6 6 7 7 6 6 5 5 6 8 9 11 14 16 17 18 18 19 20 21 21 22 23 24 26 27 28 30 31 33 34 36 38 39 40 41 42 42 41 40 39 39
33 31 29 28 27 27 26 26 26 26 26 25 25 24 23 22 21 20 19 19 20 18 16 15 16 18 17 16 16 17 16 16 16 12 9 11 12 11 10 9 9 8 8 7 8 9 8 7 7 6 6 7 8 10 12 14 16 17 18 19 20 20 21 21 22 23 24 26 27 28 30 31 33 35 37 38 39 41 41 42 42 40 40 40 39
35 33 32 31 29 28 28 28 28 27 28 27 26 25 24 23 23 22 21 21 21 19 18 18 19 19 19 17 16 18 19 18 18 15 12 13 13 12 10 10 10 9 8 9 9 10 10 8 7 7 6 7 9 11 13 14 16 17 18 19 20 20 21 21 22 23 25 26 27 28 30 31 33 35 37 38 40 41 42 42 41 40 41 40 38
37 35 34 33 32 31 30 30 29 29 29 28 27 25 25 24 24 23 22 21 20 21 21 20 19 20 23 22 19 17 19 21 20 18 16 14 13 12 11 11 10 10 9 10 11 11 10 9 8 6 6 7 9 11 13 15 16 17 19 19 20 20 21 21 22 24 25 26 27 28 30 32 34 36 37 39 40 41 42 42 42 41 41 38 37
39 37 36 35 35 34 32 31 31 31 30 29 28 27 26 25 25 24 23 22 22 23 23 22 21 21 24 26 23 16 16 22 24 21 19 18 16 13 12 12 12 12 11 11 12 12 11 9 7 6 5 6 8 11 13 15 16 17 18 19 19 20 21 22 23 24 25 26 27 28 30 32 34 36 38 39 40 41 41 42 42 41 39 37 36
40 39 38 37 37 35 34 32 31 31 30 30 29 27 26 25 25 25 24 24 24 24 23 22 21 21 23 27 26 20 16 21 25 22 20 21 21 17 14 14 13 13 12 12 13 13 11 9 7 5 5 6 8 11 13 15 16 17 17 18 19 20 20 22 23 24 25 26 27 29 31 33 34 36 37 38 40 41 41 42 42 41 38 36 35
41 40 39 38 38 37 35 33 32 32 31 30 30 28 27 26 26 26 26 26 25 24 23 23 21 20 21 25 28 25 20 21 26 25 21 21 23 22 19 17 16 16 15 14 14 14 12 9 7 5 5 6 7 10 12 14 16 16 17 18 18 19 20 21 23 24 25 26 28 30 31 33 34 36 37 38 39 40 41 42 42 40 37 34 35
42 41 40 39 39 38 36 34 33 32 31 31 31 30 29 28 28 27 27 26 26 26 25 24 23 21 21 23 27 29 27 26 28 29 26 22 20 21 23 20 18 17 17 16 15 15 13 11 8 6 5 6 7 9 12 14 15 16 17 18 18 19 20 22 23 24 25 27 28 30 31 33 34 35 37 38 39 40 41 42 41 38 35 33 34
42 42 41 40 40 39 38 36 35 33 33 32 32 32 31 30 28 28 27 27 27 27 27 25 24 23 23 24 27 29 29 29 30 30 29 26 21 20 22 21 16 16 17 17 15 15 14 13 10 7 6 6 7 8 11 13 14 16 17 18 18 19 20 22 23 24 25 27 28 29 31 32 33 35 36 37 38 39 41 41 39 36 33 33 34
44 43 43 42 42 41 40 38 37 36 35 34 34 33 33 31 30 29 28 29 28 28 28 27 26 26 26 25 26 28 28 27 29 30 28 25 22 20 21 21 18 17 18 18 17 16 15 13 12 9 7 7 7 9 11 13 14 15 16 18 18 19 20 21 22 23 25 26 28 29 30 31 33 35 36 37 38 39 40 40 37 34 32 32 33
45 45 45 44 43 43 42 41 40 40 37 36 35 35 34 33 31 30 30 30 30 28 28 28 27 28 28 25 25 26 25 24 27 29 27 25 22 20 20 21 20 19 19 19 17 17 16 14 12 10 8 7 8 9 11 13 14 15 16 17 18 18 20 21 22 23 24 26 27 28 30 31 33 34 36 37 38 39 40 38 35 33 31 31 32
45 45 44 44 44 44 43 43 42 42 40 38 37 36 36 35 33 32 31 31 30 29 29 29 28 28 28 26 25 24 22 22 26 28 27 26 24 22 22 22 20 19 19 19 18 17 15 13 12 11 10 9 9 10 11 12 13 14 15 17 17 18 19 20 21 22 23 25 26 28 29 31 33 34 35 36 37 39 39 36 34 32 30 31 31
44 44 43 43 44 43 43 43 43 43 42 40 39 38 37 36 35 34 33 32 32 31 30 29 29 29 28 27 26 25 23 23 26 27 27 26 24 22 22 22 22 20 19 19 18 17 16 14 14 13 10 9 9 9 10 11 12 13 15 16 17 17 18 19 21 22 23 25 26 28 29 30 32 34 35 36 37 38 38 36 34 32 31 30 30
43 43 43 42 42 42 41 41 41 42 43 41 40 40 39 38 37 36 35 35 34 34 32 31 30 30 29 28 26 25 25 24 26 27 26 26 25 23 22 22 22 21 21 22 21 20 19 17 15 14 11 9 9 9 9 10 11 13 14 15 16 16 18 19 21 22 23 24 26 27 29 30 32 33 34 36 36 37 37 37 35 33 31 30 29
43 43 42 42 41 40 39 38 38 40 41 42 41 41 40 39 38 37 37 36 35 35 34 32 32 30 30 30 27 26 26 26 27 28 27 26 26 24 23 21 20 19 20 21 21 20 19 17 16 14 11 10 9 9 9 9 10 12 14 14 15 16 17 19 21 22 23 24 25 27 28 30 31 33 34 35 36 36 37 37 36 34 31 30 28
43 43 42 42 41 40 38 36 36 37 39 40 41 42 42 41 40 39 37 36 35 35 33 33 32 30 30 31 29 27 28 28 28 30 29 27 26 24 22 21 19 18 16 15 16 17 17 16 15 13 11 10 10 9 9 9 10 12 13 14 15 16 17 19 20 22 23 24 25 26 28 29 30 32 34 34 35 36 36 36 36 34 32 29 28
44 43 43 42 41 41 39 37 36 36 37 39 40 42 42 42 41 39 38 37 35 33 33 34 32 30 31 33 32 29 29 30 31 32 30 28 26 24 22 20 19 17 15 13 13 15 16 15 14 12 11 11 10 9 9 9 10 12 13 14 15 16 17 19 20 21 22 23 24 26 27 29 30 32 34 34 34 35 35 36 35 34 32 29 27
44 43 43 43 42 41 40 38 36 36 37 39 41 42 42 43 42 40 39 37 34 33 35 35 33 32 31 33 33 30 29 31 33 32 31 29 27 24 22 20 18 16 15 14 12 12 14 15 13 12 11 11 11 9 9 10 11 12 13 14 15 15 17 19 19 21 21 22 24 26 27 28 30 32 33 33 33 34 35 35 35 33 31 29 27
44 44 43 43 42 41 40 39 38 37 38 40 42 43 44 44 42 39 38 36 34 35 35 33 34 34 33 34 33 30 29 32 34 33 31 29 27 24 22 20 18 16 15 14 13 12 12 13 12 11 11 11 11 10 9 10 11 11 12 13 14 16 17 18 19 20 20 21 24 26 27 28 29 31 32 32 32 33 34 34 34 33 30 28 27
43 43 43 42 42 41 41 39 38 38 38 39 41 44 45 45 42 39 38 36 34 34 33 31 34 37 36 35 34 32 30 34 35 33 31 29 26 24 22 20 18 16 15 14 13 12 11 11 11 11 10 11 12 11 10 9 10 11 11 13 14 16 17 17 18 19 19 20 23 25 27 28 29 30 31 31 31 32 33 34 33 32 30 28 26
41 42 42 42 41 41 41 40 39 38 37 37 40 42 44 45 43 39 36 33 32 34 34 31 33 38 37 36 37 36 33 35 36 33 31 28 26 24 21 19 18 16 15 14 13 12 11 11 11 11 11 11 11 11 10 10 10 11 11 12 13 15 17 17 17 18 18 19 21 24 27 27 28 29 30 30 30 31 32 33 32 30 29 28 26
39 40 40 40 40 40 40 40 39 38 36 37 39 41 42 44 44 39 33 31 31 34 36 33 32 35 35 36 38 37 36 37 37 34 31 28 26 24 21 20 18 16 15 14 12 12 11 11 11 11 11 11 11 11 11 10 10 11 11 12 12 14 16 17 17 18 18 19 20 23 26 27 27 28 29 30 30 31 32 32 31 29 28 27 26
37 38 38 39 38 39 39 39 39 37 35 35 39 41 43 45 45 37 31 33 32 30 33 35 34 35 36 36 35 37 38 39 37 33 31 28 26 23 21 20 18 16 15 13 12 12 11 11 11 11 11 11 12 11 11 10 10 10 11 12 13 13 14 16 17 19 19 19 20 22 24 26 25 26 29 30 30 31 31 31 30 28 26 26 25
36 36 37 37 37 38 38 38 37 36 35 34 38 41 42 46 46 35 29 34 35 32 32 34 34 35 35 34 33 37 39 38 35 32 30 28 25 23 21 20 18 16 14 13 12 12 11 11 11 12 11 11 11 11 11 11 10 10 10 11 13 14 15 16 16 18 20 20 21 22 23 25 25 26 28 30 30 30 31 30 29 27 26 25 25
35 36 36 35 36 36 36 36 36 36 34 33 37 40 42 46 47 34 25 32 38 37 33 31 31 32 31 31 33 36 38 36 33 31 29 27 24 23 21 20 18 16 14 13 12 11 11 11 11 11 11 11 11 11 11 11 12 12 11 10 11 13 15 16 17 18 19 20 21 22 22 23 23 24 27 29 29 29 30 30 28 25 25 24 24
34 34 34 34 34 34 35 35 35 35 33 32 34 37 42 50 46 30 28 36 40 37 32 28 29 29 29 31 33 35 35 33 31 29 27 25 24 23 22 20 18 16 14 13 12 11 11 11 11 11 11 11 11 11 11 12 13 13 13 12 12 13 14 16 18 18 18 20 21 22 22 21 22 24 26 28 29 29 29 28 27 25 25 24 23
34 34 33 33 32 32 33 33 30 30 31 32 32 34 42 49 41 30 36 41 38 33 31 30 29 28 29 31 33 34 33 30 28 27 26 24 23 22 21 20 18 16 14 13 12 11 12 12 12 12 11 11 11 11 11 12 13 14 14 14 14 15 15 17 19 19 19 20 20 21 22 22 22 24 26 28 29 29 28 27 27 27 26 24 22
31 31 31 32 32 32 32 29 26 29 31 33 33 34 41 43 35 33 39 37 32 30 31 31 28 26 28 33 34 33 32 29 28 28 26 25 24 22 21 19 17 16 14 13 12 12 12 13 13 12 11 12 12 12 12 13 13 14 14 14 14 16 17 18 20 21 22 22 20 21 22 22 23 24 26 28 29 29 28 27 28 28 26 24 23
26 27 29 31 31 33 33 28 26 29 30 31 32 36 42 41 33 34 37 32 28 29 30 31 30 27 29 35 35 34 32 31 30 29 27 26 25 23 22 20 18 17 15 13 13 13 13 14 13 12 12 12 12 13 13 13 14 15 15 15 15 17 18 19 20 21 22 23 21 21 23 23 23 24 25 26 28 28 27 27 28 27 25 23 23
24 24 26 27 26 27 30 29 28 29 29 30 33 36 39 38 34 35 35 31 27 27 28 31 31 28 31 37 37 34 33 32 31 30 28 27 26 24 22 20 19 17 15 14 13 14 14 14 13 12 12 13 13 14 14 14 15 15 16 16 17 18 19 20 20 21 22 23 23 23 23 24 24 24 24 25 27 27 26 26 27 26 24 22 22
20 21 22 23 24 25 28 31 31 31 30 31 34 34 34 36 38 40 37 31 27 27 28 29 28 28 32 37 37 35 33 33 32 30 29 27 26 24 23 21 20 18 16 14 14 15 15 14 13 13 13 14 14 15 15 15 16 16 16 17 18 18 19 20 21 22 23 24 24 24 24 25 25 24 23 24 26 25 24 24 26 26 24 21 20
21 22 22 22 23 24 25 27 28 29 30 31 32 33 34 37 40 38 33 31 30 28 27 27 25 26 31 35 36 35 34 34 33 31 29 27 26 25 23 22 20 18 16 15 16 16 14 13 13 14 14 15 16 16 16 16 17 17 18 18 19 19 19 19 20 22 23 24 25 25 24 25 26 26 24 23 24 23 22 24 25 25 23 20 18
20 21 22 22 22 23 23 25 26 27 28 28 28 30 33 35 36 33 31 32 31 26 25 24 24 26 30 34 34 34 33 33 32 30 29 27 26 25 24 22 20 18 17 17 17 16 14 14 14 14 15 16 17 17 17 17 18 18 19 20 20 21 20 19 19 20 22 24 25 25 25 25 27 28 25 24 23 21 20 23 24 23 22 19 18
20 21 21 21 22 22 22 22 22 22 23 25 25 27 31 33 32 31 31 31 29 25 24 24 25 29 31 33 33 32 32 31 30 29 28 27 27 26 25 23 21 20 19 19 18 16 15 15 14 15 16 17 18 19 19 19 19 19 20 21 22 22 22 21 20 19 21 23 24 24 25 26 27 28 27 25 22 18 18 22 24 22 20 20 18
18 20 21 22 22 22 21 20 19 18 18 20 23 25 28 31 31 30 30 30 28 27 26 25 27 30 32 32 32 32 31 30 29 29 29 28 28 27 25 24 23 22 21 19 18 17 16 16 15 16 17 18 20 20 20 20 20 21 21 22 23 23 23 23 22 21 21 23 23 24 26 26 27 29 29 26 22 17 18 23 23 20 18 19 18
13 14 16 18 19 20 20 20 20 19 17 18 20 22 26 29 30 29 28 26 26 27 27 27 29 31 32 32 32 31 31 31 31 30 30 29 28 28 27 26 25 23 21 19 18 17 16 16 16 17 18 19 20 21 21 21 22 22 23 23 23 23 23 23 23 22 22 23 24 25 26 26 26 28 29 29 24 19 19 22 23 20 17 17 17
11 11 12 14 15 15 16 17 18 18 16 16 18 21 23 27 27 25 24 24 25 26 28 29 31 32 33 33 33 33 33 33 32 31 30 29 28 28 27 27 25 23 20 19 18 17 17 17 18 18 18 19 21 21 22 22 23 24 24 24 24 24 23 23 23 22 22 23 25 26 26 26 26 27 28 29 28 24 22 22 22 21 19 18 16
Wind_Direction
193 194 197 202 205 205 208 215 220 230 238 246 255 264 271 266 269 290 313 329 320 289 282 295 306 318 349 340 338 339 20 98 14 316 107 3 6 32 29 29 38 47 53 53 53 52 50 47 59 62 50 51 46 33 34 36 36 33 30 26 21 16 9 6 2 359 357 355 353 352 351 349 349 348 347 347 346 346 346 346 346 346 346 346 346
201 204 205 210 212 217 223 229 235 238 246 256 257 258 265 266 269 290 293 292 287 279 282 296 325 12 35 2 331 330 43 97 19 334 2 337 341 6 27 35 41 51 58 61 60 59 56 57 73 74 51 46 40 33 38 34 31 28 23 19 13 8 3 0 357 354 353 352 351 350 348 347 346 345 345 346 346 347 347 348 348 348 348 348 349
208 212 215 219 223 232 241 247 252 253 259 264 262 260 264 268 271 279 278 279 280 277 283 293 96 76 45 348 325 342 40 41 29 329 323 303 300 356 31 42 51 60 64 64 63 61 58 64 79 77 50 44 41 35 35 29 26 20 15 12 7 2 358 356 353 352 351 349 349 347 345 345 345 345 347 348 349 349 349 349 349 350 350 350 350
216 220 224 229 232 240 250 256 263 266 268 268 268 272 268 262 263 263 262 272 278 270 263 186 130 163 162 328 314 9 3 314 316 314 307 288 277 21 34 58 70 70 71 68 65 62 61 67 74 64 46 46 41 33 29 23 19 12 10 5 0 358 353 352 350 349 349 347 347 345 345 346 346 348 350 351 351 351 350 350 351 350 350 350 349
223 229 234 238 240 244 252 259 265 269 273 274 273 276 269 259 258 253 247 259 282 272 235 156 163 198 181 222 273 290 287 285 303 306 296 280 260 29 35 82 84 82 83 74 68 64 65 68 61 50 45 45 37 29 23 15 10 5 2 358 355 352 349 349 348 348 348 347 347 347 348 348 350 351 351 352 351 351 351 351 351 350 350 349 347
229 235 241 248 252 253 259 266 269 272 275 276 273 274 267 256 252 253 259 263 253 240 260 159 188 210 207 232 259 273 263 263 274 283 289 276 225 72 58 103 94 95 92 80 72 64 66 63 54 50 46 41 28 19 13 7 3 357 355 352 351 349 348 348 348 349 349 349 350 350 351 351 352 352 352 352 351 351 351 351 351 350 349 347 346
234 240 245 251 257 259 264 269 270 270 271 272 272 270 261 253 252 257 265 266 253 243 249 206 205 218 226 239 254 254 247 255 254 268 287 271 214 167 160 122 104 105 96 82 77 71 69 57 54 53 41 28 14 8 3 358 354 351 351 349 349 349 349 350 350 351 352 352 352 352 353 353 353 353 353 352 351 351 350 350 350 349 348 346 345
236 242 246 249 253 258 263 266 263 264 267 268 267 266 261 257 258 255 248 252 252 244 240 221 217 225 228 234 239 231 234 247 252 269 283 261 211 192 186 151 124 121 106 92 88 87 77 58 59 49 25 11 2 358 353 350 349 348 349 349 349 351 350 351 352 353 354 354 354 355 355 354 354 353 353 352 351 350 350 350 349 348 346 344 343
236 242 246 248 251 255 259 259 258 262 266 265 266 269 267 262 260 254 239 236 236 231 228 221 224 234 238 234 228 222 225 237 249 267 275 252 203 187 195 175 152 143 126 119 117 109 93 78 67 26 0 354 349 347 344 344 346 347 349 351 352 352 352 353 355 356 356 355 356 355 355 354 354 353 352 352 350 350 350 349 348 346 344 343 341
238 243 247 249 250 254 256 255 257 260 263 265 268 269 267 262 255 251 246 235 229 227 225 224 229 240 248 246 235 225 224 232 245 263 265 237 194 182 193 192 176 168 163 162 164 179 189 159 43 331 333 336 336 337 338 341 346 348 351 353 354 354 354 356 357 358 357 356 356 355 354 354 353 352 352 351 350 349 349 347 346 344 343 341 339
238 243 248 250 250 252 254 254 255 257 260 263 264 261 262 260 252 249 253 245 232 229 230 235 240 245 246 242 231 225 225 230 244 260 253 219 189 187 193 198 200 197 190 187 188 204 218 223 259 297 312 321 327 331 336 342 346 350 353 355 356 356 357 358 358 358 357 356 356 355 353 353 352 352 351 350 349 348 347 346 344 343 341 340 339
237 241 245 248 249 251 253 254 255 256 257 260 260 258 259 258 253 247 250 247 233 230 231 232 236 237 230 213 210 216 224 237 248 249 234 204 191 194 197 202 208 213 213 209 203 212 229 236 248 275 296 313 323 329 337 343 347 351 355 358 358 358 358 359 358 358 357 356 355 354 352 351 351 350 350 349 348 347 345 344 343 342 341 341 341
239 240 243 247 249 250 250 251 252 254 257 260 260 258 254 253 250 243 242 240 234 235 230 225 223 212 194 184 188 201 220 244 249 236 212 195 196 198 203 208 212 219 223 228 229 225 234 241 248 270 294 314 323 331 339 344 349 353 356 359 358 358 359 359 358 357 356 355 354 352 351 351 350 349 349 348 346 345 344 343 342 342 342 343 343
244 243 243 246 248 248 249 249 251 253 256 258 256 254 249 245 245 241 238 235 237 241 232 223 215 192 181 182 183 187 208 230 233 220 203 195 198 202 208 212 215 221 225 229 236 237 240 247 256 276 296 313 322 333 342 346 350 353 356 358 358 359 360 358 357 356 355 354 353 352 351 350 349 349 348 347 346 345 344 344 343 343 344 344 343
248 247 246 246 246 247 248 249 250 251 253 254 253 251 247 243 244 244 239 233 236 241 235 225 211 188 181 189 192 186 189 206 211 208 209 203 200 203 210 216 216 219 227 230 231 234 240 251 266 281 295 311 326 337 345 349 351 353 355 357 358 359 359 357 356 355 354 353 352 351 350 350 348 348 347 346 345 345 345 345 344 345 345 344 343
251 251 249 249 248 247 248 249 250 251 252 253 253 251 247 244 244 244 240 235 235 238 235 223 212 200 192 191 194 192 188 195 202 202 208 208 203 205 210 216 216 216 225 229 228 229 235 250 265 279 297 315 332 342 348 351 352 352 353 355 357 359 357 355 354 354 353 352 352 350 349 349 348 347 347 346 345 345 346 346 345 345 345 343 343
251 252 252 251 251 250 250 250 251 252 253 255 256 253 248 245 244 243 240 238 237 238 237 227 219 214 207 196 191 199 202 198 197 198 205 208 206 207 209 214 216 218 223 227 228 228 232 245 261 275 298 323 338 345 349 352 351 351 352 354 357 357 355 353 353 353 352 351 351 350 349 348 348 348 347 346 346 346 347 347 346 345 344 344 343
251 252 253 254 254 253 253 253 252 253 255 257 257 252 247 245 243 242 240 240 238 237 237 233 227 221 214 209 203 205 208 202 196 194 198 204 208 207 207 211 216 221 224 225 226 228 231 241 257 276 303 330 341 345 349 350 351 351 352 354 356 355 352 352 353 352 351 350 350 349 348 348 348 347 347 346 346 347 348 347 345 344 344 344 343
252 253 254 255 256 256 256 255 253 254 255 255 255 252 250 248 245 242 240 238 236 234 234 232 231 226 216 213 212 209 208 208 204 197 192 196 202 204 205 209 215 222 225 224 226 229 231 239 255 274 308 334 341 346 348 349 350 350 351 353 353 352 351 351 351 350 349 349 349 348 348 348 348 347 346 347 347 348 348 346 344 344 344 344 343
252 253 255 256 257 258 257 255 254 253 252 253 254 253 252 249 245 242 238 237 236 234 234 232 232 230 219 214 215 211 208 212 212 210 203 196 194 198 202 206 211 220 224 225 227 230 231 238 255 275 309 334 342 346 346 346 347 348 349 351 352 351 350 350 348 348 348 347 348 348 348 348 348 347 347 348 349 349 347 345 344 344 345 344 342
252 253 254 256 257 258 257 255 254 253 252 253 253 253 251 249 245 241 238 237 236 235 235 234 233 233 227 221 219 216 211 210 210 213 215 205 197 200 203 204 208 214 220 223 225 229 233 240 253 271 302 326 341 345 342 342 344 345 348 350 350 350 348 347 346 346 346 346 348 348 348 348 348 347 348 349 349 348 346 345 345 345 345 344 342
252 252 253 254 255 256 255 254 254 253 253 252 252 251 250 248 247 244 242 240 237 235 237 237 235 235 236 233 228 221 214 209 207 210 216 216 212 211 211 211 211 211 214 219 224 228 233 241 250 265 295 318 337 343 339 340 341 342 346 348 348 348 346 345 345 345 346 346 347 348 348 348 347 348 348 349 349 347 345 345 345 346 345 343 343
253 253 253 254 254 254 255 254 253 252 252 251 251 251 250 249 247 245 243 241 238 239 242 241 236 236 240 242 237 228 219 215 213 212 215 218 219 217 214 213 215 217 215 216 221 225 230 238 246 262 294 314 331 341 337 337 339 340 343 345 345 346 344 343 344 345 345 345 347 348 347 348 348 348 348 348 348 346 345 346 346 346 344 343 342
253 252 253 253 252 253 254 253 252 251 251 251 250 250 249 248 247 244 242 239 237 239 242 241 236 235 239 244 241 231 224 222 218 217 220 223 222 219 212 208 210 215 214 214 217 218 224 236 243 256 285 309 322 333 333 333 336 339 340 341 343 344 342 341 343 344 345 346 347 347 347 348 348 348 348 347 347 346 346 346 346 346 343 343 342
255 255 256 255 254 254 255 254 254 254 252 250 249 248 248 247 246 244 241 239 238 238 240 240 236 237 241 246 245 232 222 220 216 216 222 224 222 219 211 206 211 214 210 211 216 214 219 232 238 248 273 299 313 324 328 330 334 337 337 338 341 343 341 340 341 343 346 346 346 346 347 348 348 347 347 346 347 347 347 346 346 345 343 343 341
259 260 260 259 257 257 257 257 257 256 253 251 249 247 247 248 246 243 241 240 239 239 240 240 237 238 242 245 245 234 222 218 215 214 217 218 217 216 208 203 208 215 212 211 216 219 224 234 237 244 266 288 304 316 323 327 331 333 334 335 338 340 340 339 340 344 347 347 346 346 347 348 348 347 346 346 348 348 347 346 345 344 343 343 341
261 262 261 260 260 259 259 258 257 256 253 250 248 246 246 246 245 244 242 241 239 239 240 240 237 237 239 242 243 237 228 222 217 214 215 216 218 219 214 205 201 205 209 211 217 222 228 236 238 243 260 279 294 307 317 324 328 328 328 332 335 339 340 339 340 345 349 347 346 347 347 348 348 347 346 347 349 349 347 345 343 343 344 342 343
261 262 261 260 261 260 259 258 256 254 252 250 247 245 245 245 244 243 242 242 242 240 239 239 237 236 237 240 243 239 233 227 222 219 217 216 217 218 218 215 208 204 203 207 214 220 227 233 236 242 257 273 287 300 312 321 323 321 324 329 334 339 341 339 341 347 350 348 347 347 347 348 348 347 346 347 349 349 346 344 342 343 344 342 345
260 261 262 261 261 260 259 258 255 252 251 250 248 246 246 246 244 243 243 245 247 245 240 238 237 236 236 239 242 243 238 232 225 221 218 216 216 217 218 218 218 214 208 210 215 221 228 234 237 244 256 268 281 295 308 317 317 315 320 328 335 340 341 340 342 347 350 349 348 347 347 348 348 347 346 347 349 348 345 343 341 341 341 341 342
259 260 261 260 260 259 258 256 254 252 250 249 248 247 247 246 245 243 244 247 252 250 243 239 239 236 235 237 241 244 242 236 227 219 217 216 216 219 220 218 218 220 220 221 221 222 228 235 240 248 259 268 280 294 306 312 311 312 319 327 335 341 341 341 344 348 349 349 347 347 347 348 348 346 345 346 348 348 345 342 340 339 340 339 338
258 259 258 259 259 258 257 256 254 253 250 248 246 245 245 244 243 242 245 249 251 245 240 244 245 239 235 236 240 245 243 234 223 217 216 217 217 219 221 219 218 218 221 225 224 225 229 234 240 250 260 268 279 293 304 306 307 312 320 327 336 341 341 343 346 347 348 348 347 347 347 347 348 346 344 346 347 347 344 340 339 339 339 338 337
258 258 258 258 257 256 257 256 254 252 249 246 244 244 243 241 240 243 245 246 244 239 240 247 247 241 238 237 240 246 241 227 217 215 216 216 218 220 220 219 219 216 217 222 226 232 233 231 234 245 257 269 279 291 301 304 307 314 321 329 337 339 339 344 346 346 348 348 347 347 347 346 347 345 344 345 346 345 343 340 338 338 338 336 335
258 258 257 257 256 255 255 255 253 252 249 245 243 243 241 239 240 243 242 242 245 245 246 246 243 239 239 239 242 245 237 221 214 214 216 217 218 220 219 218 218 217 217 219 224 232 233 232 237 246 257 269 281 291 299 302 307 315 322 331 335 334 337 344 344 345 348 347 347 347 346 345 345 345 343 344 345 344 342 340 338 338 337 334 333
257 257 257 256 255 254 254 254 254 252 250 247 243 241 240 240 239 240 241 245 249 247 245 245 241 236 236 241 245 244 232 218 213 214 216 217 219 220 220 219 218 218 218 219 224 232 235 238 244 252 259 269 281 293 298 299 304 314 322 330 332 330 335 341 342 345 347 347 347 346 345 345 345 345 343 343 344 343 342 340 338 337 335 333 332
256 255 255 255 254 254 254 254 254 252 250 248 244 242 241 239 238 241 246 251 250 244 241 244 243 238 241 248 248 242 229 215 212 214 215 217 219 220 220 220 219 220 219 220 225 233 240 245 249 256 263 270 281 291 297 297 304 314 321 327 329 328 332 336 340 344 345 346 348 345 343 345 346 345 342 341 342 343 341 339 338 337 334 331 330
253 253 253 253 253 253 253 252 252 252 250 246 243 243 241 239 240 244 252 256 250 243 241 245 250 250 254 257 248 235 223 214 212 213 214 216 219 219 219 220 220 220 220 221 225 231 240 248 255 261 267 275 283 290 295 298 307 316 320 323 326 326 328 332 337 342 344 346 348 345 343 345 347 345 340 340 341 342 341 340 338 337 333 330 331
252 251 251 251 251 251 252 252 251 253 252 246 242 241 240 239 240 244 256 258 248 242 242 246 252 257 261 260 244 225 216 213 213 214 214 216 219 218 219 221 222 221 221 223 228 231 238 246 255 262 266 274 282 288 292 299 308 314 317 321 323 323 325 330 335 339 340 343 345 346 346 346 347 345 339 338 340 342 342 340 338 337 333 330 331
250 250 250 250 251 252 253 254 254 256 254 248 244 241 240 241 239 240 257 258 246 243 244 245 251 259 261 253 232 216 212 213 214 216 217 218 220 220 220 221 222 223 223 227 231 233 239 245 253 262 268 273 280 286 293 300 305 308 313 317 318 321 325 330 335 336 337 340 343 345 347 347 346 344 339 337 341 343 342 340 339 338 335 332 331
250 250 249 249 251 252 252 254 257 260 257 251 247 243 243 243 238 237 256 256 244 240 241 246 258 263 254 237 220 211 211 214 216 218 219 220 221 221 221 221 221 223 225 229 234 237 243 249 254 262 270 276 281 287 295 302 304 306 310 312 313 319 324 327 331 335 335 338 340 343 348 348 346 345 341 338 341 344 342 340 339 339 338 335 333
251 251 251 251 250 249 251 253 255 256 255 251 246 244 245 241 235 241 262 256 242 235 238 252 265 262 244 225 214 210 212 214 217 220 222 224 224 222 222 221 221 222 226 230 236 242 247 253 257 262 270 276 282 289 296 301 303 305 309 312 317 324 325 325 328 331 333 334 337 341 345 348 348 346 342 339 340 344 344 341 339 341 341 339 338
246 249 251 251 249 248 252 255 253 250 251 251 245 244 246 240 235 251 260 248 236 235 243 254 261 256 239 220 210 209 211 213 217 220 223 224 225 225 225 224 223 223 226 231 237 244 251 257 261 265 271 278 284 291 296 299 300 301 306 314 322 327 328 327 327 327 330 334 338 340 342 346 348 346 343 340 340 343 346 343 341 344 345 341 341
241 241 242 243 244 247 250 254 253 250 252 253 248 247 247 240 240 256 253 239 235 242 248 250 252 250 236 218 210 209 209 212 216 219 221 222 223 224 224 223 224 224 226 232 238 247 255 260 263 267 275 281 286 292 295 297 299 301 307 315 321 324 325 326 326 326 328 333 339 340 340 343 347 347 345 342 341 344 347 346 344 345 344 340 340
237 238 239 240 243 247 248 251 254 252 252 252 249 250 246 237 241 255 248 236 240 247 249 250 251 250 235 218 210 209 208 212 216 218 221 223 223 224 222 222 223 224 228 234 241 251 258 261 264 270 278 284 288 293 295 297 300 303 308 314 318 321 323 325 326 326 326 330 337 340 340 341 347 350 348 344 343 345 347 348 345 343 342 340 339
236 238 240 242 244 246 246 249 254 255 254 252 250 251 245 237 242 249 240 234 243 249 252 255 254 249 233 218 211 209 210 214 217 220 222 222 223 224 223 222 223 226 232 238 245 255 258 260 267 274 281 286 290 295 297 298 301 304 308 312 316 320 322 323 325 326 325 329 336 340 340 340 345 350 350 346 345 345 347 348 344 341 341 340 339
236 238 241 243 245 246 250 254 257 258 256 254 252 247 239 238 243 240 232 233 242 247 253 259 255 242 227 217 212 211 212 216 219 221 223 223 224 224 222 223 225 227 234 241 247 253 255 260 269 275 282 289 293 296 297 298 300 303 306 310 314 316 319 322 323 324 324 328 335 338 338 338 340 347 351 349 347 346 345 347 345 341 340 339 338
233 235 238 240 242 245 250 254 257 258 258 259 257 246 238 242 243 237 234 237 240 244 254 259 251 234 223 218 216 216 216 219 221 222 224 225 225 225 224 225 226 229 235 242 245 249 253 260 269 276 284 291 294 295 296 297 300 303 305 308 310 313 316 319 322 323 324 328 333 335 336 335 336 342 350 351 349 347 344 345 345 342 339 337 336
230 231 234 236 238 240 243 248 253 256 257 259 257 248 246 248 243 236 237 240 239 246 258 257 242 227 221 220 220 221 222 224 225 226 227 227 226 226 225 224 226 231 235 239 242 245 251 259 267 278 286 291 293 293 295 298 300 303 305 306 308 309 312 316 319 321 322 326 330 332 332 333 334 338 345 350 351 348 344 343 345 344 339 336 334
229 227 229 232 235 236 240 245 249 251 252 252 248 246 249 248 240 236 239 238 239 249 257 251 234 222 220 221 221 223 226 228 229 230 229 229 227 226 225 225 228 232 233 236 239 243 251 259 268 279 286 289 292 292 294 298 300 302 304 305 306 308 310 314 317 320 322 324 327 328 328 330 332 334 338 346 351 350 344 343 346 347 341 334 331
230 226 227 229 232 235 239 244 247 248 251 250 246 246 248 243 236 236 238 237 241 250 252 245 232 222 220 221 222 224 226 228 230 231 229 228 226 225 226 227 230 231 232 235 239 244 253 262 270 278 283 287 290 292 295 297 299 300 301 302 303 307 310 313 316 320 323 323 324 325 325 328 332 331 332 339 347 352 349 344 345 348 343 334 329
228 227 231 233 235 238 241 245 248 249 251 250 247 246 245 240 235 235 238 243 251 255 251 240 228 222 221 221 221 224 227 229 230 229 228 227 227 227 229 230 232 233 233 236 241 247 256 266 272 276 281 286 289 292 295 297 298 299 300 301 303 306 309 312 315 320 324 323 321 322 324 327 329 328 329 334 341 349 353 348 344 345 344 335 329
221 226 235 236 236 239 241 243 245 244 247 248 246 242 239 235 233 234 243 253 258 258 252 239 227 222 221 221 222 224 227 228 228 228 227 228 229 230 231 232 233 234 235 239 244 251 260 268 272 276 281 286 289 292 294 295 297 298 299 301 303 305 307 310 314 319 324 323 319 320 323 324 326 327 329 333 337 340 348 350 345 342 342 337 332